Flag for Canada Weather past 2 weeks in Montreal, Quebec, Canada

57 °F

Sprinkles. Mostly cloudy.

Feels Like: 54 °F
Forecast: N/A
Wind: 14 mph from Southwest

Location: Montreal - Pierre Elliot Trudeau International Aiport

Current Time: Oct 13, 2015 at 7:24:34 PM

Latest Report: Oct 13, 2015 at 6:00 PM

Visibility: 15 mi

Pressure: 29.37 "Hg

Humidity: 82%

Dew point: 52 °F

Location of MontrealLocation

Historic Weather in Montreal — Graph


Montreal temperature yesterday

Maximum temperature yesterday: 73 °F (at 3:00 PM)
Minimum temperature yesterday: 55 °F (at 12:00 AM)
Average temperature yesterday: 63 °F

Past Weeks' High & Low Weather Summary

High77 °F (Sep 29, 3:00 PM)100% (Sep 30, 12:00 AM)30.62 "Hg (Sep 30, 12:00 AM)
Low37 °F (Oct 4, 6:00 AM)36% (Oct 4, 4:00 PM)29.35 "Hg (Oct 13, 5:00 PM)
Average53 °F70%30.08 "Hg
* Reported Sep 28 5:00 PM — Oct 13 5:00 PM, Montreal, Weather by CustomWeather, © 2015

Note: Actual official high and low records may vary slightly from our data, if they occured in-between our weather recording intervals... More about our weather records


Montreal weather history for previous 24 hours

Time TempWeatherWind HumidityBarometerVisibility
5:00 PM
Tue, Oct 13
63 °FSprinkles. Mostly cloudy.8 mph83%29.35 "Hg15 mi
4:00 PM64 °FScattered clouds.12 mph78%29.36 "Hg15 mi
3:00 PM61 °FScattered showers. Broken clouds.7 mph94%29.37 "Hg10 mi
2:00 PM59 °FSprinkles. Cloudy.9 mph88%29.39 "Hg5 mi
1:00 PM61 °FSprinkles. Mostly cloudy.9 mph77%29.40 "Hg15 mi
12:00 PM59 °FLight rain. Mostly cloudy.10 mph82%29.42 "Hg10 mi
11:00 AM61 °FMostly cloudy.10 mph68%29.40 "Hg15 mi
10:00 AM59 °FMostly cloudy.12 mph72%29.41 "Hg30 mi
9:00 AM57 °FPartly sunny.13 mph72%29.42 "Hg30 mi
8:00 AM57 °FPartly cloudy.13 mph72%29.43 "Hg30 mi
7:00 AM55 °FPassing clouds.7 mph77%29.44 "Hg30 mi
6:00 AM55 °FPassing clouds.8 mph77%29.46 "Hg15 mi
5:00 AM57 °FPassing clouds.6 mph72%29.47 "Hg15 mi
4:00 AM57 °FPassing clouds.8 mph72%29.49 "Hg14 mi
3:00 AM59 °FPassing clouds.9 mph68%29.50 "Hg15 mi
2:00 AM59 °FPassing clouds.7 mph72%29.52 "Hg15 mi
1:00 AM59 °FPassing clouds.3 mph72%29.54 "Hg15 mi
12:00 AM57 °FPassing clouds.3 mph77%29.56 "Hg15 mi
11:00 PM
Mon, Oct 12
61 °FPassing clouds.5 mph72%29.57 "Hg15 mi
10:00 PM61 °FPassing clouds.6 mph72%29.58 "Hg15 mi
9:00 PM64 °FPartly cloudy.6 mph64%29.59 "Hg15 mi
8:00 PM64 °FPassing clouds.5 mph64%29.59 "Hg15 mi
7:00 PM68 °FPartly sunny.7 mph60%29.59 "Hg30 mi
Weather by CustomWeather, © 2015

See weather overviewHow to use our weather pages